Harbor Springs, MI

7:33 PM EST on February 24, 2017 (GMT -0500)
Harbor Springs

Weather History for KMGN - October, 2013

Change the Weather History Date:

Wednesday, October 9, 2013

  Actual Average (KPLN) Record (KPLN)
Temperature  
Mean Temperature 62 °F -  
Max Temperature 74 °F 56 °F 80 °F (2003)
Min Temperature 51 °F 37 °F 21 °F (1989)
Degree Days  
Heating Degree Days 2    
Growing Degree Days 12 (Base 50)    
Moisture  
Dew Point 51 °F    
Average Humidity 71    
Maximum Humidity 97    
Minimum Humidity 52    
Precipitation  
Precipitation 0.00 in - - ()
Sea Level Pressure  
Sea Level Pressure 30.20 in    
Wind  
Wind Speed 3 mph (WSW)    
Max Wind Speed 7 mph    
Max Gust Speed -    
Visibility 10 miles    
Events      
Averages and records for this station are not official NWS values.
T = Trace of Precipitation, MM = Missing Value Source: NWS Daily Summary

Daily Weather History Graph

Daily Weather History Graph

Search for Another Location

Airport or City:

Trip Planner

Search our weather history database for the weather conditions in past years. The results will help you decide how hot, cold, wet, or windy it might be!

Date:

Astronomy

Oct. 09, 2013 Rise Set
Actual Time 7:48 AM EDT 7:04 PM EDT
Civil Twilight 7:18 AM EDT 7:34 PM EDT
Nautical Twilight 6:44 AM EDT 8:08 PM EDT
Astronomical Twilight 6:10 AM EDT 8:42 PM EDT
Moon 12:54 PM EDT (10/9) 10:26 PM EDT (10/9)
Length of Visible Light 12h 15m
Length of Day
11h 16m
Waxing Crescent, 25% of the Moon is Illuminated
Oct 9
Waxing Crescent
Oct 11
First Quarter
Oct 18
Full
Oct 26
Last Quarter
Nov 3
New

Hourly Weather History & Observations

Time (EDT) Temp. Dew Point Humidity Pressure Visibility Wind Dir Wind Speed Gust Speed Precip Events Conditions
12:15 AM 59.9 °F 48.0 °F 65% 30.17 in 10.0 mi SSW 5.8 mph - N/A   Clear
12:34 AM 59.9 °F 49.5 °F 68% 30.17 in 10.0 mi SSW 3.5 mph - N/A   Clear
12:54 AM 58.1 °F 48.6 °F 71% 30.17 in 10.0 mi SSW 3.5 mph - N/A   Clear
1:15 AM 57.4 °F 48.6 °F 72% 30.17 in 10.0 mi Calm Calm - N/A   Clear
1:34 AM 54.9 °F 48.4 °F 79% 30.17 in 10.0 mi Calm Calm - N/A   Clear
1:54 AM 55.0 °F 48.2 °F 78% 30.17 in 10.0 mi Calm Calm - N/A   Clear
2:15 AM 54.9 °F 48.7 °F 80% 30.18 in 10.0 mi NW 4.6 mph - N/A   Clear
2:34 AM 54.9 °F 49.1 °F 81% 30.18 in 10.0 mi WNW 3.5 mph - N/A   Clear
2:55 AM 57.4 °F 49.1 °F 74% 30.18 in 10.0 mi Calm Calm - N/A   Clear
3:15 AM 54.9 °F 48.4 °F 79% 30.18 in 10.0 mi NNW 3.5 mph - N/A   Clear
3:34 AM 54.9 °F 49.1 °F 81% 30.17 in 10.0 mi WNW 3.5 mph - N/A   Clear
3:55 AM 54.9 °F 48.6 °F 79% 30.17 in 10.0 mi West 3.5 mph - N/A   Clear
4:15 AM 56.1 °F 48.9 °F 77% 30.17 in 10.0 mi Calm Calm - N/A   Clear
4:34 AM 57.4 °F 49.1 °F 74% 30.18 in 10.0 mi SSW 3.5 mph - N/A   Clear
4:55 AM 57.4 °F 49.1 °F 74% 30.19 in 10.0 mi SW 3.5 mph - N/A   Clear
5:14 AM 57.4 °F 49.3 °F 74% 30.19 in 10.0 mi Calm Calm - N/A   Clear
5:34 AM 55.6 °F 48.2 °F 76% 30.19 in 10.0 mi Calm Calm - N/A   Clear
5:55 AM 54.9 °F 49.5 °F 82% 30.20 in 10.0 mi Calm Calm - N/A   Clear
6:14 AM 54.9 °F 48.6 °F 79% 30.20 in 10.0 mi WNW 4.6 mph - N/A   Clear
6:35 AM 56.1 °F 48.6 °F 76% 30.20 in 10.0 mi Calm Calm - N/A   Clear
6:55 AM 55.0 °F 48.2 °F 78% 30.20 in 10.0 mi Calm Calm - N/A   Clear
7:14 AM 54.9 °F 48.2 °F 78% 30.21 in 10.0 mi WNW 3.5 mph - N/A   Clear
7:35 AM 55.0 °F 47.8 °F 77% 30.21 in 10.0 mi WNW 3.5 mph - N/A   Clear
7:54 AM 57.4 °F 48.6 °F 72% 30.22 in 10.0 mi West 3.5 mph - N/A   Clear
8:14 AM 57.4 °F 48.4 °F 72% 30.22 in 10.0 mi WSW 5.8 mph - N/A   Clear
8:35 AM 57.4 °F 48.2 °F 71% 30.23 in 10.0 mi SW 4.6 mph - N/A   Clear
8:55 AM 59.0 °F 49.5 °F 71% 30.23 in 10.0 mi Calm Calm - N/A   Clear
9:14 AM 59.9 °F 50.2 °F 70% 30.24 in 10.0 mi Calm Calm - N/A   Clear
9:35 AM 59.9 °F 48.6 °F 66% 30.24 in 10.0 mi South 5.8 mph - N/A   Clear
9:54 AM 59.9 °F 48.6 °F 66% 30.24 in 10.0 mi Calm Calm - N/A   Clear
10:14 AM 61.0 °F 49.6 °F 66% 30.24 in 10.0 mi Calm Calm - N/A   Clear
10:35 AM 62.6 °F 49.8 °F 63% 30.24 in 10.0 mi Calm Calm - N/A   Clear
10:54 AM 64.0 °F 50.4 °F 61% 30.24 in 10.0 mi West 3.5 mph - N/A   Clear
11:14 AM 65.5 °F 51.1 °F 60% 30.24 in 10.0 mi WSW 5.8 mph - N/A   Clear
11:35 AM 67.3 °F 52.5 °F 59% 30.24 in 10.0 mi WSW 4.6 mph - N/A   Clear
12:14 PM 70.0 °F 54.0 °F 57% 30.24 in 10.0 mi SW 6.9 mph - N/A   Clear
12:35 PM 70.0 °F 54.5 °F 58% 30.23 in 10.0 mi SW 5.8 mph - N/A   Clear
12:54 PM 70.0 °F 54.7 °F 58% 30.23 in 10.0 mi WSW 5.8 mph - N/A   Clear
1:14 PM 70.0 °F 54.1 °F 57% 30.23 in 10.0 mi WSW 5.8 mph - N/A   Clear
1:35 PM 70.0 °F 53.4 °F 56% 30.22 in 10.0 mi WSW 5.8 mph - N/A   Clear
1:54 PM 70.0 °F 53.2 °F 55% 30.22 in 10.0 mi WSW 5.8 mph - N/A   Clear
2:15 PM 71.6 °F 53.8 °F 53% 30.21 in 10.0 mi WSW 5.8 mph - N/A   Clear
2:34 PM 72.3 °F 54.5 °F 53% 30.21 in 10.0 mi WSW 4.6 mph - N/A   Clear
2:54 PM 72.7 °F 54.1 °F 52% 30.21 in 10.0 mi WSW 3.5 mph - N/A   Clear
3:15 PM 72.9 °F 54.3 °F 52% 30.20 in 10.0 mi WSW 3.5 mph - N/A   Clear
3:34 PM 72.5 °F 54.3 °F 53% 30.20 in 10.0 mi WSW 3.5 mph - N/A   Clear
3:54 PM 72.5 °F 54.0 °F 52% 30.20 in 10.0 mi West 4.6 mph - N/A   Clear
4:15 PM 73.0 °F 54.5 °F 52% 30.20 in 10.0 mi Calm Calm - N/A   Clear
4:34 PM 73.0 °F 54.3 °F 52% 30.19 in 10.0 mi West 4.6 mph - N/A   Clear
4:54 PM 74.5 °F 55.6 °F 52% 30.19 in 10.0 mi West 4.6 mph - N/A   Clear
5:15 PM 72.5 °F 53.8 °F 52% 30.18 in 10.0 mi West 5.8 mph - N/A   Clear
5:34 PM 70.5 °F 55.9 °F 60% 30.19 in 10.0 mi WSW 3.5 mph - N/A   Clear
5:54 PM 70.0 °F 58.3 °F 66% 30.18 in 10.0 mi SW 3.5 mph - N/A   Clear
6:15 PM 70.0 °F 58.5 °F 67% 30.19 in 10.0 mi Calm Calm - N/A   Clear
6:34 PM 66.4 °F 55.2 °F 67% 30.19 in 10.0 mi West 5.8 mph - N/A   Clear
6:55 PM 63.1 °F 53.2 °F 70% 30.19 in 10.0 mi WSW 3.5 mph - N/A   Clear
7:15 PM 62.1 °F 52.5 °F 71% 30.19 in 10.0 mi West 3.5 mph - N/A   Clear
7:34 PM 61.3 °F 51.8 °F 71% 30.19 in 10.0 mi Calm Calm - N/A   Clear
7:55 PM 59.9 °F 52.5 °F 77% 30.19 in 10.0 mi Calm Calm - N/A   Clear
8:14 PM 60.1 °F 52.9 °F 77% 30.19 in 10.0 mi Calm Calm - N/A   Clear
8:34 PM 58.1 °F 52.7 °F 82% 30.19 in 10.0 mi Calm Calm - N/A   Clear
8:55 PM 57.0 °F 53.1 °F 87% 30.20 in 10.0 mi Calm Calm - N/A   Clear
9:14 PM 57.4 °F 53.6 °F 87% 30.20 in 10.0 mi Calm Calm - N/A   Clear
9:34 PM 54.9 °F 52.2 °F 91% 30.21 in 10.0 mi NW 3.5 mph - N/A   Clear
9:55 PM 54.9 °F 52.0 °F 90% 30.20 in 10.0 mi Calm Calm - N/A   Clear
10:14 PM 54.9 °F 52.5 °F 92% 30.20 in 10.0 mi Calm Calm - N/A   Clear
10:34 PM 54.9 °F 52.9 °F 93% 30.20 in 10.0 mi NE 3.5 mph - N/A   Clear
10:55 PM 52.9 °F 50.9 °F 93% 30.20 in 10.0 mi Calm Calm - N/A   Clear
11:14 PM 52.3 °F 50.7 °F 94% 30.19 in 10.0 mi East 3.5 mph - N/A   Clear
11:34 PM 51.1 °F 49.8 °F 95% 30.19 in 7.0 mi NE 4.6 mph - N/A   Clear
11:55 PM 52.5 °F 51.6 °F 97% 30.19 in 10.0 mi NE 3.5 mph - N/A   Clear